Date,TemperatureHighF,TemperatureAvgF,TemperatureLowF,DewpointHighF,DewpointAvgF,DewpointLowF,HumidityHigh,HumidityAvg,HumidityLow,PressureMaxIn,PressureMinIn,WindSpeedMaxMPH,WindSpeedAvgMPH,GustSpeedMaxMPH,PrecipitationSumIn
2013-1-1,43.0,41.8,41.0,27.0,22.1,17.0,53,46,37,0.00,40.00,9,5,0,0.00
2013-1-2,35.0,33.5,31.0,13.0,11.0,9.0,41,39,35,0.00,40.00,12,6,0,0.00
2013-1-3,38.0,32.6,29.0,20.0,13.5,9.0,53,45,35,0.00,40.00,9,5,0,0.00
2013-1-4,43.0,36.6,32.0,19.0,17.3,15.0,56,46,33,0.00,40.00,15,9,0,0.00
2013-1-5,44.0,38.6,34.0,29.0,18.5,16.0,67,44,35,0.00,40.00,14,6,0,0.00
2013-1-6,50.0,43.7,38.0,30.0,26.4,23.0,68,51,34,0.00,40.00,12,5,0,0.00
2013-1-7,45.0,42.2,39.0,28.0,24.1,22.0,58,48,41,0.00,40.00,12,7,0,0.00
2013-1-8,52.0,42.8,33.0,33.0,28.8,24.0,76,58,40,0.00,40.00,11,6,0,0.00
2013-1-9,52.0,44.9,39.0,41.0,35.0,28.0,77,68,42,0.00,40.00,13,5,0,0.00
2013-1-10,54.0,48.7,44.0,29.0,25.1,22.0,50,40,29,0.00,40.00,16,7,0,0.00
2013-1-11,45.0,43.1,41.0,43.0,33.9,27.0,98,71,50,0.00,40.00,8,5,0,0.00
2013-1-12,53.0,45.9,42.0,45.0,43.5,42.0,100,91,72,0.00,40.00,7,4,0,0.00
2013-1-13,54.0,48.0,42.0,53.0,34.2,-99.9,103,94,100,0.00,40.00,8,4,0,0.00
2013-1-14,61.0,54.2,41.0,59.0,31.0,-99.9,102,67,52,0.00,40.00,17,8,0,0.00
2013-1-15,41.0,38.9,35.0,38.0,36.6,34.0,96,91,79,0.00,40.00,11,6,0,0.00
2013-1-16,42.0,37.9,35.0,39.0,35.7,33.0,96,92,84,0.00,40.00,14,6,0,0.00
2013-1-17,44.0,41.9,39.0,41.0,31.0,24.0,94,66,46,0.00,40.00,10,5,0,0.00
2013-1-18,39.0,34.8,32.0,27.0,13.9,4.0,64,43,28,0.00,40.00,17,9,0,0.00
2013-1-19,52.0,41.2,33.0,26.0,22.8,16.0,65,49,32,0.00,40.00,15,12,0,0.00
2013-1-20,57.0,46.6,39.0,27.0,19.3,4.0,55,36,15,0.00,40.00,20,11,0,0.00
2013-1-21,45.0,36.3,31.0,24.0,15.4,7.0,51,42,31,0.00,40.00,20,9,0,0.00
2013-1-22,31.0,20.6,17.0,8.0,-5.0,-9.0,42,31,25,0.00,40.00,21,14,0,0.00
2013-1-23,25.0,19.8,15.0,5.0,-2.5,-6.0,54,38,26,0.00,40.00,13,7,0,0.00
2013-1-24,25.0,21.1,16.0,16.0,5.8,-5.0,87,55,27,0.00,40.00,17,9,0,0.00
2013-1-25,23.0,20.2,18.0,16.0,4.3,-6.0,83,52,29,0.00,40.00,13,6,0,0.00
2013-1-26,32.0,27.6,22.0,21.0,18.0,16.0,76,67,53,0.00,40.00,11,5,0,0.00
2013-1-27,38.0,31.5,27.0,20.0,16.1,13.0,70,53,38,0.00,40.00,8,5,0,0.00
2013-1-28,48.0,37.2,32.0,40.0,31.2,19.0,94,79,58,0.00,40.00,14,8,0,0.00
2013-1-29,68.0,55.1,46.0,50.0,45.5,40.0,86,71,51,0.00,40.00,11,6,0,0.00
2013-1-30,70.0,62.5,57.0,59.0,55.8,50.0,100,79,65,0.00,40.00,18,11,0,0.00
2013-1-31,61.0,39.8,32.0,61.0,16.6,8.0,100,40,30,0.00,40.00,25,15,0,0.00
2013-2-1,34.0,26.9,20.0,25.0,6.8,-1.0,88,43,31,0.00,40.00,25,12,0,0.00
2013-2-2,30.0,23.7,18.0,26.0,9.7,1.0,90,56,38,0.00,40.00,14,8,0,0.00
2013-2-3,33.0,30.2,26.0,27.0,24.4,13.0,92,79,49,0.00,40.00,20,5,0,0.00
2013-2-4,37.0,30.6,25.0,19.0,12.0,7.0,50,45,37,0.00,40.00,18,9,0,0.00
2013-2-5,40.0,36.8,33.0,27.0,22.9,19.0,67,57,47,0.00,40.00,8,4,0,0.00
2013-2-6,43.0,38.8,34.0,29.0,24.0,19.0,70,55,42,0.00,40.00,19,7,0,0.00
2013-2-7,39.0,35.3,32.0,28.0,21.3,17.0,71,56,50,0.00,40.00,12,6,0,0.00
2013-2-8,41.0,37.0,32.0,37.0,31.1,19.0,94,80,52,0.00,40.00,23,10,0,0.00
2013-2-9,39.0,33.9,29.0,19.0,14.3,11.0,55,44,32,0.00,40.00,24,14,0,0.00
2013-2-10,43.0,35.7,29.0,25.0,12.5,-99.9,58,40,24,0.00,40.00,11,6,0,0.00
2013-2-11,54.0,44.5,37.0,50.0,41.7,26.0,100,90,49,0.00,40.00,12,8,0,0.00
2013-2-12,55.0,49.6,41.0,29.0,24.2,21.0,55,37,27,0.00,40.00,16,9,0,0.00
2013-2-13,45.0,38.3,34.0,35.0,28.3,24.0,96,68,50,0.00,40.00,10,7,0,0.00
2013-2-14,48.0,40.3,34.0,33.0,26.8,21.0,94,61,35,0.00,40.00,12,7,0,0.00
2013-2-15,58.0,44.7,36.0,35.0,30.7,23.0,91,62,27,0.00,40.00,17,8,0,0.00
2013-2-16,38.0,35.7,32.0,35.0,27.2,12.0,94,72,42,0.00,40.00,15,7,0,0.00
2013-2-17,31.0,27.6,24.0,14.0,7.2,1.0,54,42,30,0.00,40.00,23,15,0,0.00
2013-2-18,40.0,30.5,22.0,16.0,5.4,2.0,48,35,22,0.00,40.00,14,8,0,0.00
2013-2-19,45.0,40.5,38.0,40.0,28.4,16.0,88,63,38,0.00,40.00,16,11,0,0.00
2013-2-20,39.0,32.4,25.0,19.0,11.1,6.0,47,41,32,0.00,40.00,22,13,0,0.00
2013-2-21,37.0,29.4,24.0,15.0,10.3,6.0,52,44,34,0.00,40.00,17,10,0,0.00
2013-2-22,33.0,31.5,30.0,31.0,20.5,13.0,91,64,46,0.00,40.00,11,6,0,0.00
2013-2-23,45.0,38.4,32.0,44.0,37.5,31.0,99,96,92,0.00,40.00,9,5,0,0.00
2013-2-24,49.0,42.0,34.0,42.0,29.0,16.0,96,64,31,0.00,40.00,22,11,0,0.00
2013-2-25,47.0,38.2,31.0,22.0,18.8,16.0,59,46,33,0.00,40.00,12,6,0,0.00
2013-2-26,44.0,38.6,33.0,44.0,31.8,23.0,99,77,50,0.00,40.00,22,10,0,0.00
2013-2-27,54.0,46.7,39.0,44.0,36.2,29.0,100,71,39,0.00,40.00,12,7,0,0.00
2013-2-28,49.0,43.2,40.0,35.0,26.4,19.0,75,52,34,0.00,40.00,14,9,0,0.00
2013-3-1,43.0,40.3,37.0,28.0,25.2,21.0,62,55,43,0.00,40.00,15,11,0,0.00
2013-3-2,36.0,33.3,31.0,21.0,19.2,16.0,62,56,44,0.00,40.00,15,11,0,0.00
2013-3-3,39.0,33.2,30.0,19.0,16.2,14.0,63,50,36,0.00,40.00,16,11,0,0.00
2013-3-4,42.0,34.2,29.0,15.0,13.0,10.0,53,42,30,0.00,40.00,18,12,0,0.00
2013-3-5,49.0,39.8,33.0,28.0,15.3,6.0,64,38,17,0.00,40.00,14,7,0,0.00
2013-3-6,39.0,35.5,32.0,34.0,32.3,27.0,98,88,64,0.00,40.00,25,15,0,0.00
2013-3-7,48.0,41.9,37.0,30.0,24.8,21.0,68,51,35,0.00,40.00,18,11,0,0.00
2013-3-8,48.0,41.7,37.0,27.0,23.9,20.0,64,49,38,0.00,40.00,22,13,0,0.00
2013-3-9,60.0,47.9,36.0,28.0,20.4,16.0,56,35,18,0.00,40.00,12,6,0,0.00
2013-3-10,61.0,50.4,40.0,32.0,21.2,8.0,57,35,12,0.00,40.00,13,7,0,0.00
2013-3-11,61.0,50.5,43.0,47.0,42.7,33.0,93,75,58,0.00,40.00,15,10,0,0.00
2013-3-12,58.0,53.7,43.0,56.0,44.2,27.0,98,71,50,0.00,40.00,17,13,0,0.00
2013-3-13,48.0,42.2,36.0,27.0,22.0,14.0,58,45,25,0.00,40.00,20,9,0,0.00
2013-3-14,43.0,36.9,32.0,18.0,12.1,9.0,51,36,24,0.00,40.00,24,14,0,0.00
2013-3-15,56.0,45.2,35.0,29.0,18.9,12.0,49,35,25,0.00,40.00,15,8,0,0.00
2013-3-16,58.0,49.1,40.0,40.0,33.3,29.0,74,54,40,0.00,40.00,12,7,0,0.00
2013-3-17,40.0,38.3,36.0,33.0,27.3,22.0,81,64,49,0.00,40.00,11,6,0,0.00
2013-3-18,38.0,36.0,32.0,36.0,27.5,17.0,97,73,45,0.00,40.00,13,8,0,0.00
2013-3-19,57.0,45.2,36.0,36.0,27.1,3.0,94,60,11,0.00,40.00,22,9,0,0.00
2013-3-20,51.0,44.3,37.0,17.0,8.7,3.0,34,23,16,0.00,40.00,22,11,0,0.00
2013-3-21,42.0,33.6,30.0,26.0,11.7,4.0,76,41,29,0.00,40.00,19,12,0,0.00
2013-3-22,45.0,35.7,29.0,17.0,11.7,6.0,45,37,28,0.00,40.00,16,10,0,0.00
2013-3-23,51.0,41.4,33.0,20.0,18.0,16.0,54,39,27,0.00,40.00,14,7,0,0.00
2013-3-24,42.0,37.9,33.0,32.0,20.8,17.0,94,52,37,0.00,40.00,12,6,0,0.00
2013-3-25,37.0,34.4,32.0,34.0,32.7,31.0,98,93,88,0.00,40.00,9,6,0,0.00
2013-3-26,48.0,40.6,34.0,33.0,28.1,21.0,94,65,33,0.00,40.00,15,8,0,0.00
2013-3-27,47.0,42.8,38.0,27.0,24.3,19.0,61,48,32,0.00,40.00,19,13,0,0.00
2013-3-28,46.0,42.7,39.0,28.0,25.6,21.0,57,50,37,0.00,40.00,18,11,0,0.00
2013-3-29,54.0,47.3,41.0,29.0,25.4,21.0,58,43,29,0.00,40.00,16,8,0,0.00
2013-3-30,58.0,51.0,44.0,29.0,23.2,16.0,56,35,19,0.00,40.00,11,4,0,0.00
2013-3-31,55.0,49.8,45.0,50.0,37.2,-99.9,96,66,36,0.00,40.00,12,7,0,0.00
2013-4-1,63.0,51.1,43.0,47.0,36.0,18.0,98,61,30,0.00,40.00,22,9,0,0.00
2013-4-2,47.0,42.0,38.0,17.0,9.4,5.0,35,26,18,0.00,40.00,18,10,0,0.00
2013-4-3,49.0,41.6,36.0,15.0,10.2,6.0,41,28,17,0.00,40.00,16,10,0,0.00
2013-4-4,47.0,39.2,32.0,35.0,14.0,8.0,88,37,22,0.00,40.00,12,7,0,0.00
2013-4-5,63.0,49.2,38.0,37.0,28.3,17.0,94,54,20,0.00,40.00,14,8,0,0.00
2013-4-6,55.0,47.0,39.0,28.0,16.5,10.0,49,30,20,0.00,40.00,13,8,0,0.00
2013-4-7,69.0,53.8,41.0,38.0,32.4,26.0,71,46,27,0.00,40.00,18,12,0,0.00
2013-4-8,78.0,67.9,57.0,48.0,41.3,38.0,55,39,24,0.00,40.00,13,7,0,0.00
2013-4-9,85.0,74.8,66.0,51.0,48.2,46.0,56,40,26,0.00,40.00,13,8,0,0.00
2013-4-10,89.0,79.7,70.0,52.0,49.7,48.0,52,36,24,0.00,40.00,13,9,0,0.00
2013-4-11,85.0,72.8,56.0,58.0,54.1,50.0,87,54,30,0.00,40.00,21,8,0,0.00
2013-4-12,72.0,58.8,51.0,64.0,56.3,50.0,100,91,73,0.00,40.00,14,9,0,0.00
2013-4-13,69.0,57.7,50.0,54.0,37.4,32.0,90,49,25,0.00,40.00,13,7,0,0.00
2013-4-14,66.0,57.4,49.0,45.0,35.1,29.0,66,45,28,0.00,40.00,12,6,0,0.00
2013-4-15,60.0,58.1,55.0,50.0,44.7,36.0,83,61,40,0.00,40.00,12,8,0,0.00
2013-4-16,74.0,62.6,54.0,57.0,51.7,46.0,80,68,50,0.00,40.00,13,9,0,0.00
2013-4-17,75.0,67.3,62.0,60.0,56.6,52.0,89,69,49,0.00,40.00,14,6,0,0.00
2013-4-18,77.0,65.7,58.0,62.0,56.5,53.0,96,74,46,0.00,40.00,16,9,0,0.00
2013-4-19,78.0,67.9,52.0,65.0,59.7,48.0,96,75,54,0.00,40.00,21,12,0,0.00
2013-4-20,58.0,52.3,46.0,48.0,26.9,21.0,85,40,23,0.00,40.00,19,11,0,0.00
2013-4-21,53.0,46.9,41.0,29.0,19.8,15.0,50,34,24,0.00,40.00,11,7,0,0.00
2013-4-22,54.0,47.3,40.0,34.0,31.9,29.0,70,55,42,0.00,40.00,15,10,0,0.00
2013-4-23,60.0,51.2,46.0,41.0,38.6,34.0,80,62,45,0.00,40.00,13,6,0,0.00
2013-4-24,76.0,61.5,48.0,51.0,47.0,41.0,90,62,32,0.00,40.00,25,10,0,0.00
2013-4-25,65.0,54.9,46.0,49.0,29.6,21.0,57,39,21,0.00,40.00,23,9,0,0.00
2013-4-26,64.0,57.1,49.0,38.0,31.0,26.0,58,38,25,0.00,40.00,10,6,0,0.00
2013-4-27,69.0,60.7,52.0,38.0,33.6,30.0,57,37,25,0.00,40.00,13,5,0,0.00
2013-4-28,66.0,58.5,53.0,46.0,37.0,-99.9,64,47,25,0.00,40.00,14,9,0,0.00
2013-4-29,59.0,55.7,52.0,58.0,52.8,40.0,98,90,51,0.00,40.00,14,8,0,0.00
2013-4-30,58.0,56.0,54.0,56.0,53.0,41.0,100,90,53,0.00,40.00,12,8,0,0.00
2013-5-1,68.0,58.5,49.0,45.0,37.6,30.0,67,48,26,0.00,40.00,13,9,0,0.00
2013-5-2,66.0,57.0,47.0,44.0,42.8,38.0,88,61,40,0.00,40.00,12,7,0,0.00
2013-5-3,64.0,56.3,50.0,46.0,40.2,34.0,82,56,33,0.00,40.00,14,9,0,0.00
2013-5-4,65.0,55.7,48.0,44.0,39.7,35.0,82,57,36,0.00,40.00,16,9,0,0.00
2013-5-5,60.0,52.5,46.0,45.0,38.8,36.0,74,60,44,0.00,40.00,15,9,0,0.00
2013-5-6,62.0,54.5,49.0,57.0,50.2,43.0,96,85,74,0.00,40.00,15,10,0,0.00
2013-5-7,63.0,59.5,57.0,61.0,58.6,57.0,100,97,89,0.00,40.00,15,12,0,0.00
2013-5-8,69.0,60.9,58.0,59.0,54.6,46.0,97,81,43,0.00,40.00,19,6,0,0.00
2013-5-9,72.0,62.6,55.0,62.0,55.1,52.0,96,77,49,0.00,40.00,11,5,0,0.00
2013-5-10,83.0,70.3,61.0,63.0,53.9,-99.9,93,62,33,0.00,40.00,16,6,0,0.00
2013-5-11,76.0,67.7,64.0,64.0,61.5,57.0,95,81,53,0.00,40.00,14,6,0,0.00
2013-5-12,66.0,59.1,54.0,62.0,35.4,-99.9,89,46,22,0.00,40.00,19,11,0,0.00
2013-5-13,58.0,52.8,48.0,29.0,22.7,17.0,46,31,20,0.00,40.00,18,9,0,0.00
2013-5-14,62.0,52.8,42.0,37.0,28.1,23.0,63,40,26,0.00,40.00,11,6,0,0.00
2013-5-15,84.0,67.2,57.0,61.0,48.6,36.0,63,51,37,0.00,40.00,15,8,0,0.00
2013-5-16,82.0,70.2,71.0,60.0,33.8,-99.9,60,48,35,0.00,40.00,19,8,0,0.00
2013-5-17,81.0,71.9,63.0,56.0,41.6,-99.9,74,43,22,0.00,40.00,13,6,0,0.00
2013-5-18,70.0,62.6,59.0,57.0,54.0,46.0,90,74,40,0.00,40.00,12,8,0,0.00
2013-5-19,73.0,64.6,59.0,66.0,34.0,-99.9,102,77,69,0.00,40.00,11,6,0,0.00
2013-5-20,80.0,71.8,66.0,68.0,65.1,63.0,95,80,56,0.00,40.00,11,6,0,0.00
2013-5-21,81.0,73.5,68.0,68.0,66.7,65.0,97,80,57,0.00,40.00,11,8,0,0.00
2013-5-22,84.0,76.7,70.0,70.0,68.0,61.0,96,75,54,0.00,40.00,15,9,0,0.00
2013-5-23,79.0,73.1,64.0,68.0,65.0,62.0,98,76,55,0.00,40.00,16,9,0,0.00
2013-5-24,65.0,57.3,50.0,63.0,46.7,32.0,96,69,44,0.00,40.00,19,12,0,0.00
2013-5-25,64.0,54.1,45.0,32.0,30.3,28.0,59,42,26,0.00,40.00,19,14,0,0.00
2013-5-26,71.0,61.5,50.0,35.0,31.1,27.0,54,33,20,0.00,40.00,15,9,0,0.00
2013-5-27,70.0,63.9,55.0,45.0,37.0,32.0,48,37,25,0.00,40.00,9,5,0,0.00
2013-5-28,82.0,69.2,61.0,69.0,56.1,44.0,88,63,45,0.00,40.00,11,5,0,0.00
2013-5-29,87.0,77.5,68.0,67.0,63.5,58.0,89,65,38,0.00,40.00,12,8,0,0.00
2013-5-30,89.0,80.7,72.0,66.0,62.5,55.0,69,54,33,0.00,40.00,11,7,0,0.00
2013-5-31,88.0,80.6,72.0,65.0,61.1,56.0,71,53,35,0.00,40.00,15,9,0,0.00
2013-6-1,89.0,80.8,72.0,65.0,62.6,60.0,72,54,38,0.00,40.00,15,9,0,0.00
2013-6-2,83.0,77.3,68.0,70.0,63.6,-99.9,100,66,51,0.00,40.00,17,11,0,0.00
2013-6-3,80.0,72.8,67.0,69.0,63.9,53.0,96,75,50,0.00,40.00,12,6,0,0.00
2013-6-4,73.0,67.6,61.0,54.0,43.4,35.0,66,43,27,0.00,40.00,12,7,0,0.00
2013-6-5,77.0,70.3,62.0,54.0,49.8,45.0,75,49,34,0.00,40.00,13,6,0,0.00
2013-6-6,73.0,68.2,64.0,65.0,57.2,51.0,96,68,53,0.00,40.00,16,10,0,0.00
2013-6-7,71.0,68.2,66.0,70.0,31.8,-99.9,104,88,94,0.00,40.00,13,6,0,0.00
2013-6-8,79.0,71.0,66.0,65.0,58.9,54.0,95,67,42,0.00,40.00,12,7,0,0.00
2013-6-9,79.0,73.8,68.0,66.0,61.4,54.0,77,65,42,0.00,40.00,13,7,0,0.00
2013-6-10,78.0,72.7,69.0,73.0,70.1,64.0,99,91,75,0.00,40.00,13,8,0,0.00
2013-6-11,81.0,74.4,67.0,68.0,63.0,59.0,98,70,48,0.00,40.00,15,9,0,0.00
2013-6-12,87.0,79.7,70.0,66.0,61.8,59.0,70,55,39,0.00,40.00,14,7,0,0.00
2013-6-13,85.0,75.8,69.0,73.0,62.6,-99.9,96,69,45,0.00,40.00,19,10,0,0.00
2013-6-14,77.0,69.0,60.0,56.0,50.7,44.0,85,54,31,0.00,40.00,20,10,0,0.00
2013-6-15,80.0,73.1,64.0,55.0,51.7,45.0,71,49,29,0.00,40.00,13,8,0,0.00
2013-6-16,83.0,76.7,69.0,65.0,59.6,54.0,69,55,41,0.00,40.00,17,6,0,0.00
2013-6-17,85.0,78.6,73.0,69.0,63.9,60.0,72,60,48,0.00,40.00,13,6,0,0.00
2013-6-18,79.0,72.6,67.0,72.0,67.4,63.0,95,83,70,0.00,40.00,11,5,0,0.00
2013-6-19,76.0,70.0,65.0,64.0,59.2,55.0,90,69,48,0.00,40.00,11,6,0,0.00
2013-6-20,77.0,70.4,65.0,64.0,58.5,54.0,92,67,44,0.00,40.00,12,6,0,0.00
2013-6-22,85.0,80.4,75.0,64.0,60.5,58.0,68,50,43,0.00,40.00,14,8,0,0.00
2013-6-23,84.0,75.6,70.0,71.0,67.4,64.0,99,76,55,0.00,40.00,12,5,0,0.00
2013-6-24,89.0,79.2,73.0,72.0,68.2,62.0,93,70,41,0.00,40.00,17,6,0,0.00
2013-6-25,91.0,81.5,72.0,69.0,66.9,59.0,88,63,38,0.00,40.00,13,7,0,0.00
2013-6-26,88.0,79.0,71.0,72.0,65.7,61.0,89,64,47,0.00,40.00,13,6,0,0.00
2013-6-27,80.0,74.7,70.0,72.0,69.4,68.0,97,83,69,0.00,40.00,15,8,0,0.00
2013-6-28,85.0,76.0,69.0,72.0,68.0,62.0,99,77,52,0.00,40.00,19,7,0,0.00
2013-6-29,86.0,78.0,71.0,71.0,63.2,55.0,96,64,37,0.00,40.00,11,6,0,0.00
2013-6-30,84.0,78.0,75.0,75.0,72.0,68.0,95,82,62,0.00,40.00,14,7,0,0.00
2013-7-1,81.0,76.4,72.0,74.0,70.3,67.0,97,82,60,0.00,40.00,14,8,0,0.00
2013-7-2,80.0,76.2,74.0,73.0,71.5,70.0,92,85,73,0.00,40.00,14,10,0,0.00
2013-7-3,84.0,76.7,73.0,74.0,71.3,69.0,100,84,63,0.00,40.00,13,8,0,0.00
2013-7-4,87.0,80.5,75.0,74.0,70.5,65.0,95,73,48,0.00,40.00,14,9,0,0.00
2013-7-5,87.0,81.7,75.0,72.0,69.8,67.0,88,68,51,0.00,40.00,15,10,0,0.00
2013-7-6,89.0,82.3,77.0,73.0,70.4,66.0,89,68,49,0.00,40.00,15,9,0,0.00
2013-7-7,88.0,80.3,72.0,70.0,68.9,65.0,88,69,52,0.00,40.00,22,9,0,0.00
2013-7-8,84.0,76.7,72.0,70.0,67.5,61.0,91,74,46,0.00,40.00,12,6,0,0.00
2013-7-9,84.0,79.5,75.0,74.0,69.1,66.0,83,70,54,0.00,40.00,9,5,0,0.00
2013-7-10,87.0,78.1,75.0,73.0,68.4,-99.9,87,75,54,0.00,40.00,22,8,0,0.00
2013-7-11,83.0,77.0,73.0,71.0,68.7,65.0,88,76,53,0.00,40.00,10,6,0,0.00
2013-7-12,77.0,70.1,67.0,71.0,66.1,64.0,93,87,75,0.00,40.00,14,8,0,0.00
2013-7-13,84.0,75.5,69.0,73.0,68.0,66.0,93,78,58,0.00,40.00,10,5,0,0.00
2013-7-14,88.0,80.4,75.0,73.0,70.5,65.0,92,73,46,0.00,40.00,10,7,0,0.00
2013-7-15,92.0,82.7,76.0,72.0,70.1,67.0,84,67,46,0.00,40.00,9,6,0,0.00
2013-7-16,92.0,85.9,79.0,72.0,68.2,64.0,74,56,40,0.00,40.00,10,6,0,0.00
2013-7-17,93.0,86.6,79.0,72.0,68.0,63.0,72,55,37,0.00,40.00,9,5,0,0.00
2013-7-18,95.0,86.3,79.0,77.0,72.6,69.0,77,64,44,0.00,40.00,12,5,0,0.00
2013-7-19,93.0,87.2,81.0,77.0,73.2,67.0,74,62,50,0.00,40.00,16,8,0,0.00
2013-7-20,92.0,83.3,79.0,74.0,68.9,-99.9,81,63,46,0.00,40.00,15,9,0,0.00
2013-7-21,89.0,81.2,77.0,73.0,68.4,65.0,82,65,47,0.00,40.00,11,5,0,0.00
2013-7-22,87.0,80.5,76.0,73.0,70.4,67.0,85,72,52,0.00,40.00,11,6,0,0.00
2013-7-23,84.0,78.8,74.0,71.0,67.8,64.0,88,70,49,0.00,40.00,15,7,0,0.00
2013-7-24,82.0,78.0,75.0,67.0,62.7,57.0,68,59,46,0.00,40.00,11,7,0,0.00
2013-7-25,78.0,70.6,62.0,62.0,54.6,50.0,69,57,42,0.00,40.00,14,8,0,0.00
2013-7-26,82.0,73.0,65.0,61.0,58.1,53.0,85,61,37,0.00,40.00,9,5,0,0.00
2013-7-27,83.0,74.6,69.0,69.0,65.8,63.0,92,74,51,0.00,40.00,16,8,0,0.00
2013-7-28,82.0,75.8,71.0,69.0,66.4,64.0,87,72,54,0.00,40.00,11,7,0,0.00
2013-7-29,79.0,72.7,66.0,68.0,56.2,45.0,82,58,31,0.00,40.00,12,6,0,0.00
2013-7-30,81.0,74.1,66.0,60.0,55.4,52.0,69,52,41,0.00,40.00,10,5,0,0.00
2013-7-31,79.0,74.7,71.0,67.0,63.1,58.0,88,67,48,0.00,40.00,15,6,0,0.00
2013-8-1,81.0,73.4,67.0,70.0,67.7,65.0,96,83,64,0.00,40.00,11,6,0,0.00
2013-8-2,85.0,76.4,70.0,69.0,62.6,56.0,85,64,39,0.00,40.00,14,7,0,0.00
2013-8-3,78.0,73.8,68.0,66.0,63.5,60.0,88,69,55,0.00,40.00,10,5,0,0.00
2013-8-4,79.0,71.7,65.0,65.0,57.0,48.0,90,63,35,0.00,40.00,18,8,0,0.00
2013-8-5,79.0,71.6,63.0,57.0,51.8,47.0,71,51,33,0.00,40.00,8,5,0,0.00
2013-8-6,73.0,70.3,67.0,65.0,63.1,56.0,89,78,54,0.00,40.00,11,7,0,0.00
2013-8-7,82.0,74.9,70.0,70.0,66.8,65.0,88,76,61,0.00,40.00,13,8,0,0.00
2013-8-8,84.0,78.6,75.0,73.0,70.6,69.0,85,76,61,0.00,40.00,14,8,0,0.00
2013-8-9,89.0,81.7,77.0,73.0,71.1,69.0,85,71,53,0.00,40.00,17,10,0,0.00
2013-8-10,83.0,78.7,76.0,69.0,63.3,55.0,76,60,38,0.00,40.00,10,5,0,0.00
2013-8-11,82.0,77.8,75.0,69.0,64.9,60.0,76,64,47,0.00,40.00,10,5,0,0.00
2013-8-12,87.0,79.5,74.0,70.0,66.9,60.0,85,66,41,0.00,40.00,9,5,0,0.00
2013-8-13,84.0,76.9,70.0,73.0,67.2,-99.9,94,74,52,0.00,40.00,12,7,0,0.00
2013-8-14,73.0,66.2,60.0,68.0,47.7,-99.9,87,55,41,0.00,40.00,17,9,0,0.00
2013-8-15,77.0,63.0,59.0,54.0,37.2,-99.9,74,50,27,0.00,40.00,10,6,0,0.00
2013-8-16,77.0,68.8,63.0,56.0,49.6,-99.9,76,54,37,0.00,40.00,9,4,0,0.00
2013-8-17,77.0,70.6,62.0,61.0,55.7,50.0,81,60,39,0.00,40.00,12,6,0,0.00
2013-8-18,72.0,68.0,66.0,63.0,59.0,-99.9,88,74,54,0.00,40.00,9,5,0,0.00
2013-8-19,73.0,65.8,65.0,65.0,52.7,-99.9,86,78,72,0.00,40.00,10,5,0,0.00
2013-8-20,85.0,75.2,68.0,70.0,63.5,-99.9,89,70,43,0.00,40.00,9,5,0,0.00
2013-8-21,86.0,78.4,73.0,72.0,69.2,65.0,90,74,50,0.00,40.00,10,6,0,0.00
2013-8-22,85.0,78.2,72.0,70.0,66.3,61.0,90,68,47,0.00,40.00,13,8,0,0.00
2013-8-23,78.0,73.4,68.0,68.0,62.7,53.0,86,68,51,0.00,40.00,12,6,0,0.00
2013-8-24,80.0,71.2,63.0,63.0,56.8,51.0,88,63,37,0.00,40.00,10,6,0,0.00
2013-8-25,80.0,71.1,64.0,63.0,54.8,-99.9,82,60,33,0.00,40.00,12,5,0,0.00
2013-8-26,86.0,73.8,65.0,63.0,57.4,54.0,70,57,34,0.00,40.00,14,8,0,0.00
2013-8-27,87.0,77.8,73.0,67.0,64.7,63.0,72,63,46,0.00,40.00,11,7,0,0.00
2013-8-28,78.0,75.4,73.0,71.0,69.6,69.0,91,82,73,0.00,40.00,9,6,0,0.00
2013-8-29,83.0,76.1,72.0,70.0,67.7,64.0,93,76,53,0.00,40.00,11,7,0,0.00
2013-8-30,84.0,77.1,71.0,69.0,66.5,64.0,86,70,53,0.00,40.00,12,8,0,0.00
2013-8-31,87.0,78.2,72.0,73.0,67.9,66.0,85,71,51,0.00,40.00,12,9,0,0.00
2013-9-1,89.0,79.5,73.0,71.0,65.5,-99.9,81,64,43,0.00,40.00,10,6,0,0.00
2013-9-2,87.0,79.0,71.0,72.0,68.5,65.0,87,71,48,0.00,40.00,14,6,0,0.00
2013-9-3,83.0,77.3,71.0,72.0,61.4,51.0,83,60,35,0.00,40.00,15,8,0,0.00
2013-9-4,81.0,72.1,62.0,59.0,51.9,44.0,73,51,27,0.00,40.00,9,6,0,0.00
2013-9-5,81.0,74.3,68.0,60.0,54.6,45.0,72,51,36,0.00,40.00,15,8,0,0.00
2013-9-6,75.0,67.6,59.0,51.0,44.6,37.0,61,44,26,0.00,40.00,10,6,0,0.00
2013-9-7,77.0,69.0,61.0,62.0,54.4,49.0,72,59,48,0.00,40.00,11,5,0,0.00
2013-9-8,83.0,72.5,68.0,64.0,58.7,-99.9,77,64,48,0.00,40.00,11,6,0,0.00
2013-9-9,77.0,72.2,63.0,65.0,57.3,46.0,72,59,53,0.00,40.00,10,6,0,0.00
2013-9-10,89.0,85.6,81.0,72.0,69.7,67.0,72,59,49,0.00,40.00,11,8,0,0.00
2013-9-11,91.0,82.5,76.0,72.0,70.1,65.0,86,67,43,0.00,40.00,13,7,0,0.00
2013-9-12,87.0,77.5,71.0,70.0,68.3,64.0,93,74,50,0.00,40.00,13,6,0,0.00
2013-9-13,76.0,70.3,63.0,67.0,56.7,46.0,83,64,35,0.00,40.00,17,9,0,0.00
2013-9-14,67.0,60.6,53.0,49.0,43.5,41.0,69,54,39,0.00,40.00,12,8,0,0.00
2013-9-15,73.0,63.2,54.0,57.0,47.8,-99.9,81,60,42,0.00,40.00,10,4,0,0.00
2013-9-16,70.0,66.0,62.0,59.0,55.5,52.0,85,69,52,0.00,40.00,11,7,0,0.00
2013-9-17,67.0,59.6,50.0,53.0,42.5,33.0,74,55,27,0.00,40.00,10,7,0,0.00
2013-9-18,63.0,54.8,52.0,48.0,46.8,42.0,82,74,53,0.00,40.00,8,3,0,0.00
2013-9-19,75.0,65.6,58.0,56.0,52.8,50.0,82,64,46,0.00,40.00,9,6,0,0.00
2013-9-20,78.0,68.1,62.0,59.0,56.0,55.0,79,65,46,0.00,40.00,13,7,0,0.00
2013-9-21,75.0,66.8,63.0,65.0,59.5,57.0,93,78,56,0.00,40.00,14,8,0,0.00
2013-9-22,70.0,63.3,59.0,61.0,51.7,-99.9,92,70,44,0.00,40.00,10,6,0,0.00
2013-9-23,65.0,58.1,55.0,47.0,43.5,39.0,73,58,42,0.00,40.00,9,7,0,0.00
2013-9-24,70.0,58.9,50.0,51.0,44.4,42.0,78,60,39,0.00,40.00,10,5,0,0.00
2013-9-25,73.0,63.1,54.0,53.0,44.2,35.0,78,53,25,0.00,40.00,7,3,0,0.00
2013-9-26,73.0,65.2,59.0,53.0,50.0,46.0,73,58,39,0.00,40.00,9,4,0,0.00
2013-9-27,71.0,64.4,60.0,57.0,53.8,52.0,83,68,51,0.00,40.00,9,4,0,0.00
2013-9-28,69.0,63.1,59.0,54.0,52.0,49.0,78,67,48,0.00,40.00,10,5,0,0.00
2013-9-29,63.0,57.4,57.0,54.0,47.0,-99.9,84,75,71,0.00,40.00,4,3,0,0.00
2013-9-30,74.0,69.6,64.0,53.0,50.3,48.0,66,50,41,0.00,40.00,9,5,0,0.00
2013-10-1,76.0,71.9,64.0,58.0,57.1,53.0,67,59,52,0.00,40.00,7,5,0,0.00
2013-10-2,83.0,73.3,64.0,59.0,56.4,54.0,77,56,36,0.00,40.00,12,6,0,0.00
2013-10-3,81.0,74.2,65.0,64.0,60.4,58.0,80,62,46,0.00,40.00,9,4,0,0.00
2013-10-4,84.0,75.7,67.0,65.0,62.4,58.0,85,65,41,0.00,40.00,8,3,0,0.00
2013-10-5,86.0,77.6,70.0,66.0,63.6,60.0,80,63,41,0.00,40.00,9,4,0,0.00
2013-10-6,85.0,76.5,70.0,66.0,64.0,60.0,84,66,44,0.00,40.00,13,7,0,0.00
2013-10-7,74.0,67.9,59.0,68.0,61.1,44.0,95,79,56,0.00,40.00,18,9,0,0.00
2013-10-8,65.0,58.9,53.0,46.0,43.8,42.0,74,57,43,0.00,40.00,13,6,0,0.00
2013-10-9,59.0,57.2,55.0,51.0,47.0,44.0,85,68,58,0.00,40.00,14,9,0,0.00
2013-10-10,58.0,55.5,53.0,56.0,53.1,50.0,94,91,83,0.00,40.00,12,8,0,0.00
2013-10-11,62.0,59.5,56.0,60.0,57.6,54.0,94,93,90,0.00,40.00,10,7,0,0.00
2013-10-12,66.0,62.2,60.0,60.0,57.9,55.0,94,86,67,0.00,40.00,14,9,0,0.00
2013-10-13,64.0,59.9,58.0,58.0,54.1,-99.9,93,83,72,0.00,40.00,13,9,0,0.00
2013-10-14,68.0,60.7,56.0,54.0,51.7,50.0,87,73,53,0.00,40.00,10,6,0,0.00
2013-10-15,71.0,62.3,54.0,55.0,46.0,-99.9,94,63,28,0.00,40.00,8,4,0,0.00
2013-10-16,70.0,64.5,60.0,60.0,57.7,54.0,87,78,68,0.00,40.00,8,5,0,0.00
2013-10-17,74.0,67.4,62.0,62.0,60.5,56.0,92,79,60,0.00,40.00,15,7,0,0.00
2013-10-18,64.0,59.4,55.0,56.0,42.3,38.0,78,53,39,0.00,40.00,15,7,0,0.00
2013-10-19,63.0,57.8,53.0,57.0,48.9,44.0,87,72,51,0.00,40.00,13,5,0,0.00
2013-10-20,61.0,54.2,47.0,46.0,33.8,-99.9,63,48,31,0.00,40.00,18,8,0,0.00
2013-10-21,64.0,56.2,50.0,48.0,41.1,33.0,77,59,31,0.00,40.00,14,6,0,0.00
2013-10-22,62.0,57.0,52.0,48.0,43.8,32.0,76,61,41,0.00,40.00,10,6,0,0.00
2013-10-23,55.0,50.3,45.0,38.0,33.4,28.0,72,53,37,0.00,40.00,15,7,0,0.00
2013-10-24,49.0,44.9,41.0,36.0,28.8,21.0,71,54,34,0.00,40.00,17,9,0,0.00
2013-10-25,52.0,44.3,39.0,30.0,28.7,27.0,68,55,38,0.00,40.00,17,9,0,0.00
2013-10-26,54.0,46.3,38.0,31.0,27.1,24.0,76,48,32,0.00,40.00,16,8,0,0.00
2013-10-27,59.0,51.9,47.0,38.0,30.7,-99.9,60,46,35,0.00,40.00,13,6,0,0.00
2013-10-28,63.0,52.2,45.0,42.0,34.8,-99.9,68,54,33,0.00,40.00,9,4,0,0.00
2013-10-29,63.0,53.8,46.0,43.0,39.1,36.0,72,58,39,0.00,40.00,7,4,0,0.00
2013-10-30,62.0,56.6,53.0,54.0,50.7,44.0,89,80,66,0.00,40.00,8,4,0,0.00
2013-10-31,68.0,61.8,56.0,58.0,55.7,53.0,92,81,67,0.00,40.00,12,6,0,0.00
2013-11-1,72.0,67.1,61.0,62.0,58.4,55.0,88,73,59,0.00,40.00,17,8,0,0.00
2013-11-2,65.0,60.6,52.0,59.0,43.5,34.0,86,54,38,0.00,40.00,15,6,0,0.00
2013-11-3,55.0,49.4,43.0,40.0,28.2,-99.9,73,47,22,0.00,40.00,14,8,0,0.00
2013-11-4,44.0,39.9,34.0,22.0,18.5,14.0,56,42,29,0.00,40.00,10,6,0,0.00
2013-11-5,57.0,48.1,39.0,46.0,35.1,22.0,72,60,46,0.00,40.00,7,4,0,0.00
2013-11-6,66.0,57.8,53.0,51.0,48.0,45.0,78,69,54,0.00,40.00,11,7,0,0.00
2013-11-7,61.0,54.8,45.0,54.0,42.3,-99.9,93,70,35,0.00,40.00,22,10,0,0.00
2013-11-8,48.0,44.2,41.0,25.0,21.5,17.0,52,40,28,0.00,40.00,15,8,0,0.00
2013-11-9,54.0,44.5,36.0,28.0,23.9,-99.9,71,46,31,0.00,40.00,14,6,0,0.00
2013-11-10,61.0,50.8,44.0,31.0,26.7,23.0,54,40,24,0.00,40.00,19,10,0,0.00
2013-11-11,55.0,48.0,42.0,29.0,26.6,24.0,56,44,30,0.00,40.00,13,7,0,0.00
2013-11-12,51.0,42.2,33.0,36.0,20.3,10.0,62,42,31,0.00,40.00,20,10,0,0.00
2013-11-13,41.0,35.4,31.0,18.0,15.8,14.0,56,45,34,0.00,40.00,15,8,0,0.00
2013-11-14,54.0,43.6,33.0,23.0,17.4,13.0,57,36,19,0.00,40.00,9,5,0,0.00
2013-11-15,59.0,48.6,39.0,37.0,25.0,21.0,60,41,26,0.00,40.00,10,5,0,0.00
2013-11-16,52.0,48.9,46.0,49.0,44.9,-99.9,93,88,68,0.00,40.00,8,4,0,0.00
2013-11-17,63.0,55.6,52.0,55.0,52.3,50.0,94,88,75,0.00,40.00,8,5,0,0.00
2013-11-18,67.0,62.3,51.0,40.0,13.0,-99.9,42,25,16,0.00,40.00,17,12,0,0.00
2013-11-19,51.0,44.6,40.0,25.0,23.2,21.0,51,43,33,0.00,40.00,17,10,0,0.00
2013-11-20,45.0,39.2,35.0,28.0,21.9,20.0,64,50,38,0.00,40.00,10,6,0,0.00
2013-11-21,50.0,43.2,36.0,39.0,31.8,26.0,72,63,54,0.00,40.00,8,4,0,0.00
2013-11-22,61.0,53.5,47.0,52.0,44.2,37.0,77,70,64,0.00,40.00,13,5,0,0.00
2013-11-23,58.0,44.4,32.0,48.0,25.2,12.0,69,47,31,0.00,40.00,18,13,0,0.00
2013-11-24,32.0,27.0,24.0,12.0,0.8,-99.9,44,35,28,0.00,40.00,21,14,0,0.00
2013-11-25,35.0,28.6,23.0,10.0,6.0,3.0,49,38,27,0.00,40.00,13,8,0,0.00
2013-11-26,44.0,35.9,33.0,43.0,24.9,10.0,96,68,35,0.00,40.00,13,7,0,0.00
2013-11-27,39.0,36.9,30.0,37.0,30.4,13.0,96,78,47,0.00,40.00,20,13,0,0.00
2013-11-28,37.0,31.5,28.0,17.0,11.6,8.0,50,43,34,0.00,40.00,19,9,0,0.00
2013-11-29,41.0,35.1,30.0,20.0,17.4,15.0,67,49,35,0.00,40.00,13,7,0,0.00
2013-11-30,38.0,32.7,27.0,22.0,16.7,-99.9,63,53,43,0.00,40.00,8,4,0,0.00
2013-12-1,48.0,39.7,32.0,29.0,25.8,22.0,73,58,43,0.00,40.00,6,3,0,0.00
2013-12-2,48.0,44.1,41.0,38.0,33.9,29.0,76,67,55,0.00,40.00,6,4,0,0.00
2013-12-3,56.0,48.3,44.0,38.0,35.1,33.0,68,60,45,0.00,40.00,7,3,0,0.00
2013-12-4,55.0,49.8,43.0,48.0,41.9,37.0,86,74,65,0.00,40.00,7,4,0,0.00
2013-12-5,67.0,58.7,53.0,60.0,53.9,49.0,91,84,66,0.00,40.00,12,6,0,0.00
2013-12-6,64.0,51.5,39.0,61.0,48.7,36.0,93,90,86,0.00,40.00,15,8,0,0.00
2013-12-7,41.0,36.9,32.0,36.0,26.1,-99.9,91,68,50,0.00,40.00,12,8,0,0.00
2013-12-8,32.0,28.8,27.0,29.0,22.5,17.0,94,78,57,0.00,40.00,25,6,0,0.00
2013-12-9,35.0,33.0,31.0,32.0,31.1,29.0,95,92,88,0.00,40.00,7,4,0,0.00
2013-12-10,37.0,33.6,32.0,32.0,28.0,17.0,95,81,52,0.00,40.00,12,5,0,0.00
2013-12-11,40.0,34.1,29.0,20.0,15.8,12.0,57,47,33,0.00,40.00,9,4,0,0.00
2013-12-12,34.0,29.5,25.0,23.0,10.9,2.0,66,46,30,0.00,40.00,13,8,0,0.00
2013-12-13,41.0,35.3,28.0,20.0,12.1,7.0,57,38,28,0.00,40.00,11,6,0,0.00
2013-12-14,40.0,35.9,34.0,35.0,26.7,-99.9,95,72,43,0.00,40.00,11,7,0,0.00
2013-12-15,45.0,37.4,34.0,34.0,28.0,19.0,94,70,47,0.00,40.00,20,9,0,0.00
2013-12-16,36.0,34.5,32.0,23.0,21.1,18.0,64,57,53,0.00,40.00,13,6,0,0.00
2013-12-17,39.0,35.2,33.0,31.0,27.0,23.0,79,71,64,0.00,40.00,9,5,0,0.00
2013-12-18,41.0,35.4,31.0,30.0,21.5,14.0,87,59,39,0.00,40.00,17,6,0,0.00
2013-12-19,59.0,43.7,32.0,26.0,23.8,21.0,69,48,27,0.00,40.00,11,6,0,0.00
2013-12-20,59.0,53.1,47.0,46.0,31.4,26.0,64,43,35,0.00,40.00,10,8,0,0.00
2013-12-21,69.0,61.1,55.0,58.0,47.9,-99.9,75,63,53,0.00,40.00,16,10,0,0.00
2013-12-22,70.0,63.7,61.0,61.0,58.5,56.0,91,82,68,0.00,40.00,19,10,0,0.00
2013-12-23,63.0,55.6,39.0,61.0,49.9,24.0,95,81,53,0.00,40.00,15,8,0,0.00
2013-12-24,39.0,34.0,24.0,24.0,12.0,-99.9,61,48,32,0.00,40.00,20,11,0,0.00
2013-12-25,31.0,25.3,21.0,19.0,8.1,5.0,68,48,35,0.00,40.00,13,7,0,0.00
2013-12-26,44.0,34.0,28.0,21.0,19.1,14.0,76,56,32,0.00,40.00,10,6,0,0.00
2013-12-27,48.0,41.0,35.0,23.0,17.8,13.0,53,39,27,0.00,40.00,8,5,0,0.00
2013-12-28,56.0,45.6,35.0,25.0,23.5,22.0,62,43,27,0.00,40.00,8,6,0,0.00
2013-12-29,49.0,45.8,41.0,45.0,36.7,24.0,96,73,39,0.00,40.00,13,7,0,0.00
2013-12-30,46.0,40.9,34.0,38.0,29.9,19.0,84,64,53,0.00,40.00,15,7,0,0.00
2013-12-31,43.0,35.2,32.0,26.0,17.1,12.0,65,48,33,0.00,40.00,19,9,0,0.00
2014-1-1,46.0,37.0,31.0,31.0,20.4,13.0,66,50,42,0.00,40.00,10,5,0,0.00
2014-1-2,40.0,34.4,30.0,32.0,29.9,27.0,95,84,61,0.00,40.00,10,5,0,0.00